Cloud_Cover
56 28 5 5 5 5 12 5 20 7 100 100 97 78 12 5 35 63 100 95 8 16 73 5 2 0 0 0 0 0 0 0 0 0 0 2 5 5 2 0 3 6 11 5
55 63 5 27 47 36 56 5 21 6 5 2 21 98 100 100 97 13 54 74 100 96 64 44 5 5 5 5 4 0 2 0 0 0 0 4 5 5 5 0 2 5 1 16
89 5 5 6 62 19 34 46 19 8 13 5 5 0 2 81 100 100 100 88 52 100 100 96 36 81 58 24 5 5 5 5 13 5 1 2 0 3 5 3 19 5 5 5
100 37 5 14 53 99 100 100 72 5 5 5 5 5 5 1 1 18 99 100 100 100 97 81 100 89 35 5 5 39 58 5 5 5 5 5 5 8 5 5 26 25 6 81
59 6 5 5 8 49 42 86 100 100 5 0 0 5 5 5 3 0 0 0 5 64 99 100 99 100 71 7 90 100 77 100 100 17 14 5 5 7 55 2 23 97 100 39
83 88 31 6 5 5 5 5 6 12 16 0 0 0 0 2 4 1 5 5 5 5 5 27 65 81 100 89 51 96 47 22 72 8 56 95 6 5 5 5 12 100 100 100
21 5 10 5 5 5 5 5 5 11 27 8 32 34 2 0 0 4 4 5 5 5 33 84 5 5 5 13 78 82 99 92 34 100 18 5 5 5 15 5 5 22 78 88
93 88 99 51 5 5 5 5 5 7 5 5 5 22 88 42 3 0 3 4 5 5 32 30 7 5 5 5 5 5 18 35 49 84 100 87 68 70 38 62 36 95 68 8
100 100 84 99 100 5 5 2 0 1 3 5 5 5 31 54 12 5 4 4 5 5 5 52 87 20 5 5 69 7 22 71 81 64 64 94 98 97 48 100 76 100 90 100
100 100 100 100 96 73 69 77 55 25 5 5 5 5 34 49 11 5 15 15 5 5 6 76 48 6 5 5 5 70 90 98 84 100 96 15 32 70 6 39 52 100 87 90
82 52 100 83 100 99 81 75 89 36 92 32 6 5 5 25 5 4 35 25 36 5 41 12 5 5 5 5 5 5 6 90 78 95 100 54 5 5 83 74 45 10 95 92
100 100 61 77 85 100 100 100 100 100 100 90 42 36 37 54 91 98 100 27 5 5 6 6 47 19 84 93 91 5 44 5 34 5 7 17 9 55 9 5 50 81 24 63
100 100 87 38 7 23 82 100 100 100 100 100 100 100 95 67 22 26 33 44 13 10 18 50 99 100 98 91 45 31 69 68 95 65 84 53 100 59 5 5 8 70 100 100
100 100 80 86 100 100 100 100 100 100 100 100 100 84 100 100 100 100 100 87 61 93 99 100 100 100 100 100 100 100 100 50 73 69 100 70 63 96 10 77 92 95 96 57
100 100 100 100 100 100 100 100 100 100 100 100 66 16 45 98 100 100 100 100 100 100 100 100 100 100 100 100 100 100 97 100 39 25 100 72 99 100 100 100 100 100 100 100
100 100 100 100 100 100 100 100 100 100 100 100 100 98 100 100 100 100 100 100 100 100 100 100 100 100 100 100 100 100 100 47 21 6 78 100 100 96 100 100 100 100 100 100
100 100 100 100 51 78 100 100 100 100 100 100 100 100 100 100 100 100 100 100 100 100 100 100 100 100 100 100 100 100 100 100 12 58 98 94 100 100 84 88 89 85 41 77
100 100 100 100 96 30 97 97 82 99 100 100 100 100 100 100 100 100 99 100 100 100 100 100 100 100 100 100 100 100 66 65 90 51 15 16 40 97 100 100 100 100 100 100
100 100 100 100 96 84 92 100 100 90 99 74 100 100 100 100 100 100 100 100 100 93 100 100 100 100 89 10 75 100 94 15 15 99 66 41 5 90 97 96 100 100 100 100
100 100 100 100 100 100 85 93 100 100 100 100 100 92 100 100 99 100 100 100 99 100 82 100 100 100 100 100 100 100 67 5 19 75 75 49 43 85 95 100 100 100 100 100
100 100 100 100 100 100 100 100 100 100 100 100 94 100 99 100 100 100 100 74 97 97 17 100 99 99 100 100 100 100 100 100 100 100 53 32 70 100 100 100 100 100 98 100
96 82 91 100 100 100 100 94 83 100 77 80 100 100 100 100 100 100 100 100 95 81 58 100 76 19 100 100 100 100 100 100 100 100 100 100 100 100 100 46 15 5 5 78
100 95 97 99 75 100 100 99 78 94 100 100 100 98 98 100 100 100 100 100 86 73 99 38 5 100 100 100 93 95 100 100 100 100 100 100 95 100 38 36 54 5 5 5
100 100 86 81 60 90 64 11 5 5 11 92 87 100 100 97 100 100 100 100 100 100 94 4 5 60 100 95 100 100 100 100 100 100 100 100 100 100 81 8 5 32 5 92
100 100 83 20 17 10 40 73 91 85 91 98 100 99 93 88 97 97 69 97 84 40 19 45 100 100 100 100 100 100 100 100 100 92 98 22 28 5 2 1 1 6 16 17
100 94 70 47 70 9 60 50 94 37 99 100 100 100 100 56 76 97 51 88 24 39 97 73 79 65 100 100 100 100 100 34 6 5 6 18 2 0 1 0 0 0 0 0
100 89 7 5 5 5 2 5 5 16 81 78 63 99 99 100 100 67 58 30 2 18 76 100 100 62 86 100 89 10 4 5 30 77 8 1 0 0 0 0 0 0 0 2